Regional Weather Roundup
Issued by NWS

Home | Current Version | Previous Version | Text Only | Print | Product List | Glossary Off
Versions: 1 2 3 4 5 6 7 8 9 10 11 12 13 14 15 16 17 18 19 20 21 22 23 24 25 26 27 28 29 30 31 32 33 34 35 36 37 38 39 40 41 42 43 44 45 46 47 48 49 50

000
ASUS43 KMPX 191510
RWRMN
WEATHER ROUNDUP FOR MINNESOTA
NATIONAL WEATHER SERVICE TWIN CITIES/CHANHASSEN MN
900 AM CST MON FEB 19 2018


NOTE: "FAIR" INDICATES FEW OR NO CLOUDS BELOW 12,000 FEET WITH NO
SIGNIFICANT WEATHER AND/OR OBSTRUCTIONS TO VISIBILITY. N/A MEANS
CURRENT SKY AND/OR WEATHER CONDITIONS ARE NOT AVAILABLE.

MNZ060>063-068>070-191600-
   Twin Cities Metro

CITY           SKY/WX    TMP DP  RH WIND       PRES   REMARKS
TWIN CITIES    FRZ DRZL  19  16  88 N16       29.91S WCI   4
ST PAUL        MIX PCPN  20  16  84 N8        29.94R FOG     WCI  10
CRYSTAL        LGT SNOW  19  13  77 NE16G23   29.92S WCI   4
BLAINE         FRZ DRZL  19  14  79 NE17G26   29.93S WCI   4
LAKEVILLE      CLOUDY    19  18  93 N14G21    29.88S FOG     WCI   6
EDEN PRAIRIE   LGT SNOW  19  14  81 N16G28    29.89R WCI   4
SOUTH ST PAUL  CLOUDY    22  18  85 N10G18    29.91S FOG     WCI  11
LAKE ELMO      MIX PCPN  23  21  93 NE9G17    29.92F WCI  13
$$
MNZ001>005-007-008-013>017-022>024-027-028-191600-
   Northwest Minnesota

CITY           SKY/WX    TMP DP  RH WIND       PRES   REMARKS
BEMIDJI        FAIR       5  -2  72 N12       30.13R WCI -11
HALLOCK        FAIR      -8 -13  77 N9        30.29S WCI -25
WARROAD        FAIR      -2  -9  71 N7        30.24R WCI -16
THIEF RVR FALL FAIR       0  -7  72 NE12      30.23R WCI -17
CROOKSTON      FAIR       1  -6  71 NE10      30.25R WCI -14
FOSSTON        FAIR       1  -4  78 N12       30.17R WCI -15
DETROIT LAKES  FAIR       9   1  72 N10       30.11R WCI  -6
MOORHEAD       FAIR       5  -2  72 N21       30.18R WCI -16
PARK RAPIDS    PTSUNNY    6  -1  73 NE10G18   30.07R WCI  -9
MAHNOMEN       CLOUDY     5  -1  77 N14       30.14R WCI -13
$$
MNZ006-009>011-018-025>026-191600-
   North Central Minnesota

CITY           SKY/WX    TMP DP  RH WIND       PRES   REMARKS
BAUDETTE       FAIR      -2  -8  76 N7        30.20R WCI -15
FLAG ISLAND    FAIR      -9 -15  77 NW7       30.24R WCI -24
INTL FALLS     FAIR       3  -2  79 N7        30.17S WCI  -9
WASKISH        FAIR       3   0  85 N7        30.18R WCI  -9
BIG FORK       FAIR       5   0  78 NE5       30.12S WCI  -4
LONGVILLE      FAIR       5   0  78 N6        30.08S WCI  -6
GRAND RAPIDS   CLOUDY     5  -2  72 N9        30.11S WCI  -9
CRANE LAKE     FAIR       3  -2  78 CALM      30.18S
ORR            FAIR       3  -4  72 NE3       30.10F
COOK             N/A      3  -2  78 NE7       30.12S WCI  -9
WALKER         PTSUNNY    5  -2  72 NE8       30.10S WCI  -8
$$
MNZ012-019>021-037-191600-
   Northeast Minnesota

CITY           SKY/WX    TMP DP  RH WIND       PRES   REMARKS
DULUTH         LGT SNOW   9   2  73 NE10      30.04R WCI  -5
ELY            FAIR       3  -2  78 NE6       30.12R WCI  -8
HIBBING        CLOUDY     4  -3  73 NE7       30.09S WCI  -8
EVELETH        FAIR     N/A N/A N/A NE10      30.10S
DULUTH HARBOR  LGT SNOW  18  12  79 NE17G24   30.10R VSB 1   WCI   2
TWO HARBORS    FAIR      12   5  73 N7        30.05S WCI   2
GRAND MARAIS     N/A     11  -1  58 N8        30.17R WCI  -1
G MARAIS ARPRT FAIR       1  -8  66 N8        30.06R WCI -12
$$
MNZ029>031-032-039>041-046>048-054>057-064-191600-
   West Central Minnesota

CITY           SKY/WX    TMP DP  RH WIND       PRES   REMARKS
FERGUS FALLS   FAIR       9   1  72 NE9       30.10R WCI  -5
WHEATON        LGT SNOW   9   3  78 N17G23    30.10S WCI -10
MORRIS         LGT SNOW  12   9  85 N17G23    30.01F WCI  -5
ALEXANDRIA     LGT SNOW  11   6  81 N18G25    30.00S VSB 1   WCI  -7
ELBOW LAKE     LGT SNOW  10   6  84 NE15      30.06S WCI  -7
WADENA         LGT SNOW   7   1  78 N14       30.06S WCI -10
GLENWOOD       LGT SNOW  10   7  85 N18G26    29.98S WCI  -8
APPLETON       LGT SNOW  14   9  79 N18       30.01R WCI  -3
BENSON         LGT SNOW  14   9  79 NE17G23   30.00S WCI  -3
ORTONVILLE     LGT SNOW   9   5  85 N21G31    30.02R WCI -11
MADISON        LGT SNOW  16  10  79 N16G22    30.01R WCI   0
WILLMAR        CLOUDY    14  10  85 NE22G29   29.96S WCI  -4
$$
MNZ033>034-036-042>043-049>051-058-059-191600-
   Central Minnesota

CITY           SKY/WX    TMP DP  RH WIND       PRES   REMARKS
ST CLOUD       FLURRIES  12   8  84 N16G23    29.97F WCI  -5
SAUK CENTRE    LGT SNOW  11   7  83 N16G25    29.98F WCI  -6
PAYNESVILLE    LGT SNOW  13  10  88 N16G25    29.97R WCI  -4
AITKIN         LGT SNOW   7   1  78 N9G17     30.06R WCI  -7
PINE RIVER     FAIR       7   0  72 N6        30.10S WCI  -3
BRAINERD       LGT SNOW   9   2  73 N12       30.06R VSB 1   WCI  -6
STAPLES        LGT SNOW   7   1  78 N7        30.06R WCI  -5
LONG PRAIRIE   LGT SNOW  10   5  79 NW16G22   30.01S VSB 1   WCI  -7
LITTLE FALLS   SNOW      12   5  73 N7        30.02F VSB 1/2 WCI   2
LITCHFIELD     CLOUDY    16  10  79 NE17G23   29.95R WCI   0
BUFFALO        CLOUDY    17  11  78 N14G21    29.96R WCI   3
MAPLE LAKE     CLOUDY    17  12  83 N14G22    29.97R WCI   2
HUTCHINSON     MIX PCPN  17  13  84 N16G29    29.92S WCI   1
$$
MNZ037-044-045-052-053-191600-
   East Central Minnesota

CITY           SKY/WX    TMP DP  RH WIND       PRES   REMARKS
PRINCETON      CLOUDY    16  10  79 N20       29.95F WCI  -1
MORA           LGT SNOW  14  10  85 N6        30.03R VSB 3/4 WCI   5
CAMBRIDGE      CLOUDY    16   9  73 N12G18    29.98S WCI   3
RUSH CITY      CLOUDY    15  10  82 N12G20    30.00R WCI   2
MOOSE LAKE     LGT SNOW  12   7  79 N10       30.05R VSB 1   WCI  -1
HINCKLEY         N/A     14  12  92 N14G22    30.02R WCI  -1
CLOQUET        LGT SNOW   9   3  78 N9G16     30.05R VSB 1   WCI  -5
MCGREGOR       CLOUDY    10   5  79 N9        30.07R WCI  -2
$$
MNZ071>073-080-081-089-090-097-098-191600-
   Southwest Minnesota

CITY           SKY/WX    TMP DP  RH WIND       PRES   REMARKS
MONTEVIDEO     LGT SNOW  16  10  79 NE18G25   29.99R WCI  -1
GRANITE FALLS  CLOUDY    16  12  83 N17       30.00R WCI   0
CANBY          CLOUDY    13   9  85 N14G21    30.01R WCI  -2
MARSHALL       FLURRIES  14  10  84 N20       29.97R WCI  -3
REDWOOD FALLS  CLOUDY    15  11  83 N13G25    29.93R WCI   1
OLIVIA         CLOUDY    18  12  79 N21G26    29.93S WCI   1
PIPESTONE      LGT SNOW  10   7  85 NE23G29   29.86S WCI -10
WINDOM         LGT SNOW  16   3  57 N21       29.85S WCI  -2
WORTHINGTON    LGT SNOW  15  12  88 MISG      29.83S FOG
JACKSON        CLOUDY    18  14  86 N22G28    29.83S FOG     WCI   0
TRACY          LGT SNOW  16  14  92 N22       29.91R WCI  -2
SLAYTON        LGT SNOW  14  12  91 N23       29.86S WCI  -5
$$
MNZ065>067-074>077-082>085-091>093-191600-
   South Central Minnesota

CITY           SKY/WX    TMP DP  RH WIND       PRES   REMARKS
MANKATO        MIX PCPN  20  17  88 N28       29.86S FOG     WCI   2
NEW ULM        LGT SNOW  18  12  79 NE14G22   29.88F WCI   4
ST JAMES       CLOUDY    18  16  93 N15       29.88S FOG     WCI   3
FAIRMONT       MIX PCPN  20  17  88 MISG      29.82F FOG
GLENCOE        MIX PCPN  19  16  89 N12G20    29.90F WCI   6
FARIBAULT      MIX PCPN  21  19  93 N14G21    29.85F WCI   8
OWATONNA       MIX PCPN  25  21  86 N16G22    29.82S WCI  12
WASECA         LGT SNOW  23  21  93 N16       29.84F WCI  10
ALBERT LEA     MIX PCPN  27  25  93 N18G24    29.77F WCI  13
$$
MNZ078>079-086>088-094>096-191600-
   Southeast Minnesota

CITY           SKY/WX    TMP DP  RH WIND       PRES   REMARKS
ROCHESTER      FRZ RAIN  28  27  96 N14       29.79R FOG     WCI  17
RED WING       MIX PCPN  27  19  74 NE7       29.88R WCI  19
STANTON        MIX PCPN  26  23  89 N18       29.86R WCI  12
DODGE CENTER   MIX PCPN  27  25  93 N15       29.80S WCI  15
WINONA         CLOUDY    34  30  86 CALM      29.82R
AUSTIN         MIX PCPN  27  25  93 N14G20    29.76F WCI  15
PRESTON        CLOUDY    30  28  93 N9        29.77F FOG     WCI  22
$$
ABBREVIATIONS USED IN REMARKS
   TC - TEMPERATURES IN CELSIUS
  WCI - WIND CHILL INDEX
   HX - HEAT INDEX
  VSB - VISIBILITY
$$




USA.gov is the U.S. government's official web portal to all federal, state and local government web resources and services.